Marrakech, Morocco

7:50 PM WET on November 23, 2017 (GMT +0000)
Marrakech

Weather History for GMMX - April, 2014

Change the Weather History Date:

Friday, April 18, 2014

  Actual Average Record
Temperature  
Mean Temperature 68 °F -  
Max Temperature 81 °F 79 °F 99 °F (2013)
Min Temperature 54 °F 55 °F 48 °F (2012)
Cooling Degree Days 2    
Growing Degree Days 18 (Base 50)    
Moisture  
Dew Point 56 °F    
Average Humidity 66    
Maximum Humidity 94    
Minimum Humidity 28    
Precipitation  
Precipitation 0.00 in 0.04 in - ()
Sea Level Pressure  
Sea Level Pressure 29.99 in    
Wind  
Wind Speed 5 mph ()    
Max Wind Speed 12 mph    
Max Gust Speed -    
Visibility 5.7 miles    
Events      
Averages and records for this station are not official NWS values.
T = Trace of Precipitation, MM = Missing Value Source: Averaged Metar Reports

Daily Weather History Graph

Daily Weather History Graph

Search for Another Location

Airport or City:

Trip Planner

Search our weather history database for the weather conditions in past years. The results will help you decide how hot, cold, wet, or windy it might be!

Date:

Astronomy

Apr. 18, 2014 Rise Set
Actual Time 7:00 AM WEST 8:02 PM WEST
Civil Twilight 6:35 AM WEST 8:28 PM WEST
Nautical Twilight 6:05 AM WEST 8:57 PM WEST
Astronomical Twilight 5:35 AM WEST 9:28 PM WEST
Moon 11:26 PM WEST (4/18) 9:18 AM WEST (4/18)
Length of Visible Light 13h 52m
Length of Day
13h 02m
Waning Gibbous, 89% of the Moon is Illuminated
Apr 18
Waning Gibbous
Apr 22
Last Quarter
Apr 29
New
May 7
First Quarter
May 14
Full

Hourly Weather History & Observations

Time (WEST) Temp. Heat Index Dew Point Humidity Pressure Visibility Wind Dir Wind Speed Gust Speed Precip Events Conditions
12:00 AM 62.6 °F - 57.2 °F 82% 30.06 in - West 9.2 mph - N/A   Clear
12:30 AM 60.8 °F - 57.2 °F 88% 30.06 in - West 6.9 mph - N/A   Clear
1:00 AM 60 °F - 56 °F 83% 30.04 in 6 mi West 5.8 mph - -  
1:00 AM 60.8 °F - 57.2 °F 88% 30.06 in - West 5.8 mph - N/A   Clear
1:30 AM 59.0 °F - 55.4 °F 88% 30.06 in - West 5.8 mph - N/A   Clear
2:00 AM 59.0 °F - 55.4 °F 88% 30.06 in - WSW 5.8 mph - N/A   Clear
2:30 AM 59.0 °F - 55.4 °F 88% 30.04 in - WSW 3.5 mph - N/A   Clear
3:00 AM 59.0 °F - 57.2 °F 94% 30.04 in - WSW 4.6 mph - N/A   Clear
3:30 AM 59.0 °F - 55.4 °F 88% 30.01 in - SW 5.8 mph - N/A   Clear
4:00 AM 58 °F - 56 °F 90% 30.01 in 6 mi SW 6.9 mph - -  
4:00 AM 57.2 °F - 55.4 °F 94% 30.01 in - SW 6.9 mph - N/A   Clear
4:30 AM 57.2 °F - 55.4 °F 94% 30.04 in - WSW 5.8 mph - N/A   Clear
5:00 AM 57.2 °F - 55.4 °F 94% 30.04 in 5.6 mi WSW 4.6 mph - N/A   Unknown
5:30 AM 59.0 °F - 55.4 °F 88% 30.01 in 5.0 mi SW 4.6 mph - N/A   Scattered Clouds
6:00 AM 59.0 °F - 55.4 °F 88% 30.04 in 5.6 mi WSW 3.5 mph - N/A   Scattered Clouds
6:02 AM 59.0 °F - 55.4 °F 88% 30.01 in 5.0 mi WSW 3.5 mph - N/A   Mostly Cloudy
6:30 AM 59.0 °F - 55.4 °F 88% 30.04 in 3.7 mi West 4.6 mph - N/A   Mostly Cloudy
7:00 AM 59 °F - 56 °F 85% 30.01 in 5 mi West 4.6 mph - -   Mostly Cloudy
7:30 AM 59.0 °F - 55.4 °F 88% 30.04 in 6.2 mi West 4.6 mph - N/A   Overcast
8:00 AM 59.0 °F - 55.4 °F 88% 30.04 in 6.2 mi Variable 2.3 mph - N/A   Overcast
8:30 AM 60.8 °F - 55.4 °F 82% 30.04 in 5.0 mi WSW 3.5 mph - N/A   Overcast
9:00 AM 60.8 °F - 57.2 °F 88% 30.04 in 5.0 mi Variable 1.2 mph - N/A   Overcast
9:48 AM 64 °F - 56 °F 70% 30.00 in 5 mi WNW 1.2 mph - -   Mostly Cloudy
10:00 AM 64.4 °F - 57.2 °F 77% 30.04 in 5.0 mi Variable 1.2 mph - N/A   Mostly Cloudy
10:30 AM 64.4 °F - 57.2 °F 77% 30.04 in 6.2 mi NW 3.5 mph - N/A   Mostly Cloudy
11:00 AM 68.0 °F - 57.2 °F 68% 30.04 in 6.2 mi Variable 2.3 mph - N/A   Mostly Cloudy
11:30 AM 68.0 °F - 57.2 °F 68% 30.04 in 6.2 mi NNE 5.8 mph - N/A   Mostly Cloudy
12:00 PM 69.8 °F - 57.2 °F 64% 30.01 in 6.2 mi Variable 4.6 mph - N/A   Scattered Clouds
12:30 PM 71.6 °F - 55.4 °F 57% 30.01 in 6.2 mi NE 6.9 mph - N/A   Scattered Clouds
1:00 PM 73 °F - 56 °F 45% 29.95 in 6 mi North 6.9 mph - -   Partly Cloudy
1:00 PM 73.4 °F - 55.4 °F 53% 30.01 in 6.2 mi North 5.8 mph - N/A   Scattered Clouds
1:30 PM 75.2 °F - 55.4 °F 50% 30.01 in 6.2 mi NNE 5.8 mph - N/A   Scattered Clouds
2:00 PM 77.0 °F - 57.2 °F 50% 29.98 in 6.2 mi North 6.9 mph - N/A   Scattered Clouds
2:30 PM 77.0 °F - 57.2 °F 50% 29.98 in 6.2 mi WNW 6.9 mph - N/A   Scattered Clouds
3:00 PM 78.8 °F - 57.2 °F 47% 29.98 in 6.2 mi Variable 3.5 mph - N/A   Scattered Clouds
3:30 PM 80.6 °F 80.5 °F 55.4 °F 42% 29.95 in - Variable 3.5 mph - N/A   Clear
4:00 PM 80 °F - 56 °F 32% 29.87 in 6 mi NNE 4.6 mph - -   Scattered Clouds
4:00 PM 80.6 °F 80.5 °F 55.4 °F 42% 29.95 in - North 5.8 mph - N/A   Clear
4:30 PM 80.6 °F 80.5 °F 55.4 °F 42% 29.95 in - NNW 5.8 mph - N/A   Clear
5:00 PM 82.4 °F 81.7 °F 55.4 °F 39% 29.92 in - Variable 2.3 mph - N/A   Clear
5:30 PM 82.4 °F 81.7 °F 55.4 °F 39% 29.92 in - North 4.6 mph - N/A   Clear
6:00 PM 80.6 °F 80.5 °F 55.4 °F 42% 29.92 in - North 4.6 mph - N/A   Clear
6:30 PM 80.6 °F 80.3 °F 53.6 °F 39% 29.92 in - Variable 2.3 mph - N/A   Clear
7:00 PM 81 °F - 54 °F 28% 29.84 in 6 mi North 3.5 mph - -   Scattered Clouds
7:00 PM 80.6 °F 80.3 °F 53.6 °F 39% 29.92 in - North 3.5 mph - N/A   Clear
7:30 PM 80.6 °F 80.3 °F 53.6 °F 39% 29.92 in - NE 3.5 mph - N/A   Clear
8:00 PM 78.8 °F - 53.6 °F 42% 29.92 in - NNE 6.9 mph - N/A   Clear
8:30 PM 78.8 °F - 53.6 °F 42% 29.92 in - NNE 5.8 mph - N/A   Clear
9:00 PM 77.0 °F - 53.6 °F 44% 29.92 in - NE 8.1 mph - N/A   Clear
9:30 PM 73.4 °F - 55.4 °F 53% 29.95 in - NNE 10.4 mph - N/A   Clear
10:00 PM 70 °F - 55 °F 50% 29.90 in 6 mi North 9.2 mph - -   Clear
10:00 PM 69.8 °F - 55.4 °F 60% 29.95 in - North 10.4 mph - N/A   Clear
10:30 PM 69.8 °F - 55.4 °F 60% 29.95 in - NNE 11.5 mph - N/A   Clear
11:00 PM 68.0 °F - 55.4 °F 64% 29.98 in - NNE 6.9 mph - N/A   Clear
11:30 PM 66.2 °F - 55.4 °F 68% 29.98 in - NNE 5.8 mph - N/A   Clear